Regional Weather Roundup
Issued by NWS Cleveland, OH

Home | Current Version | Previous Version | Graphics & Text | Print | Product List | Glossary On
Versions: 1 2 3 4 5 6 7 8 9 10 11 12 13 14 15 16 17 18 19 20 21 22 23 24 25 26 27 28 29 30 31 32 33 34 35 36 37 38 39 40 41 42 43 44 45 46 47 48 49 50
000
ASUS41 KCLE 111402
RWRCLE
OHIO REGIONAL WEATHER ROUNDUP
NATIONAL WEATHER SERVICE CLEVELAND, OH
1000 AM EDT FRI JUL 11 2014

NOTE: "FAIR" INDICATES FEW OR NO CLOUDS BELOW 12,000 FEET WITH NO
SIGNIFICANT WEATHER AND/OR OBSTRUCTIONS TO VISIBILITY.

OHZ001>008-015>018-024>027-034-035-043-044-111500-
   NORTHWEST OHIO

CITY           SKY/WX    TMP DP  RH WIND       PRES   REMARKS
DEFIANCE       SUNNY     72  60  66 E8        30.23F
FINDLAY        SUNNY     72  59  63 E7        30.23S
TOLEDO EXPRESS SUNNY     72  62  71 E5        30.23F
TOLEDO EXEC    SUNNY     73  60  63 VRB7      30.24F
LIMA           SUNNY     73  60  63 E6        30.24S
$$

OHZ009>014-019>023-028>033-038-089-111500-
   NORTHEAST OHIO

CITY           SKY/WX    TMP DP  RH WIND       PRES   REMARKS
CLE-HOPKINS    SUNNY     73  60  63 N8        30.25S
CLE-LAKEFRONT  SUNNY     72  63  73 N9        30.22F
CUY CO. ARPT   SUNNY     73  64  73 E12       30.25S
LORAIN-ELYRIA  SUNNY     75  59  57 E6        30.24S
ASHTABULA      SUNNY     71  57  61 VRB3      30.25S
AKRON-CANTON   MOSUNNY   74  53  48 NE8       30.24S
WOOSTER        SUNNY     73  56  54 E6        30.25S
MANSFIELD      SUNNY     72  55  55 NE5       30.26R
YOUNGSTOWN     SUNNY     72  60  66 CALM      30.24S
$$

OHZ042-051>053-060>062-070>072-077>081-111500-
  SOUTHWEST OHIO

CITY           SKY/WX    TMP DP  RH WIND       PRES   REMARKS
CINC-COVINGTON MOSUNNY   76  58  53 E5        30.23R
CINC-LUNKEN    SUNNY     71  61  70 CALM      30.23S
HAMILTON       SUNNY     74  62  66 E5        30.23S
DAYTON         MOSUNNY   74  61  63 E5        30.24S
WRIGHT-PAT AFB SUNNY     73  62  69 NE5       30.23S
DAYTON GENERAL SUNNY     73  62  68 NE5       30.23R
WILMINGTON     SUNNY     72  63  73 E3        30.23S
$$

OHZ036-037-039>041-045>050-054>059-063>069-073>076-082>088-111500-
  CENTRAL AND SOUTHEAST OHIO

CITY           SKY/WX    TMP DP  RH WIND       PRES   REMARKS
COLUMBUS       SUNNY     76  58  53 CALM      30.23R
OSU AIRPORT    SUNNY     74  59  59 CALM      30.24R
BOLTON FIELD   SUNNY     73  63  68 CALM      30.24R
RICKENBACK AFB SUNNY     74  58  57 E3        30.23S
NEWARK         SUNNY     74  59  59 CALM      30.23R
MARION         SUNNY     74  59  59 N5        30.25R
LANCASTER      SUNNY     73  62  68 CALM      30.23S
ZANESVILLE     SUNNY     72  60  66 VRB3      30.22S
NEW PHILLY     SUNNY     72  60  66 CALM      30.24R
$$


USA.gov is the U.S. government's official web portal to all federal, state and local government web resources and services.